Flag for U.S.A. Weather past 2 weeks in San Francisco, California, U.S.A.

Now
64 °F

Passing clouds.


Feels Like: 64 °F
Forecast: 61 / 71 °F
Wind: 8 mph from West

Location: San Francisco International Airport

Current Time: Sep 17, 2014 at 3:29:43 AM

Latest Report: Sep 17, 2014 at 2:56 AM


Visibility: 10 mi

Pressure: 29.81 "Hg

Humidity: 87%

Dew point: 60 °F

Location of San FranciscoLocation

Historic Weather in San Francisco — Graph

°F

San Francisco temperature yesterday

Maximum temperature yesterday: 80 °F (at 1:56 PM)
Minimum temperature yesterday: 62 °F (at 5:56 AM)
Average temperature yesterday: 68 °F

Past Weeks' High & Low Weather Summary

 TemperatureHumidityPressure
High82 °F (Sep 10, 2:56 PM)96% (Sep 10, 7:56 AM)30.00 "Hg (Sep 10, 7:56 AM)
Low56 °F (Sep 10, 4:56 AM)43% (Sep 15, 3:56 PM)29.70 "Hg (Sep 3, 4:56 PM)
Average65 °F77%29.86 "Hg
* Reported Sep 2 1:56 AM — Sep 17 1:56 AM, San Francisco, Weather by CustomWeather, © 2014

Note: Actual official high and low records may vary slightly from our data, if they occured in-between our weather recording intervals... More about our weather records

Advertising

San Francisco weather history for September 3, 2014

 ConditionsComfort  
Time TempWeatherWind HumidityBarometerVisibility
12:56 AM
Sep 3
61 °FPassing clouds.No wind87%29.78 "Hg10 mi
1:56 AM61 °FPassing clouds.6 mph87%29.77 "Hg10 mi
2:56 AM61 °FPassing clouds.7 mph87%29.76 "Hg10 mi
3:56 AM60 °FPassing clouds.6 mph90%29.76 "Hg10 mi
4:03 AM61 °FOvercast.6 mph83%29.76 "Hg10 mi
4:56 AM61 °FOvercast.6 mph83%29.76 "Hg10 mi
5:56 AM61 °FPassing clouds.6 mph83%29.77 "Hg10 mi
6:56 AM61 °FLow clouds.6 mph83%29.78 "Hg10 mi
7:56 AM62 °FMostly cloudy.6 mph83%29.79 "Hg10 mi
8:56 AM63 °FMostly cloudy.3 mph81%29.80 "Hg10 mi
9:56 AM64 °FMostly cloudy.3 mph81%29.81 "Hg10 mi
10:56 AM65 °FOvercast.7 mph78%29.81 "Hg10 mi
11:56 AM69 °FPassing clouds.7 mph70%29.80 "Hg10 mi
12:56 PM71 °FPassing clouds.6 mph68%29.78 "Hg10 mi
1:56 PM72 °FPassing clouds.3 mph66%29.75 "Hg10 mi
2:56 PM75 °FPassing clouds.6 mph62%29.73 "Hg10 mi
3:56 PM74 °FPassing clouds.16 mph62%29.71 "Hg10 mi
4:56 PM74 °FPassing clouds.17 mph60%29.70 "Hg10 mi
5:56 PM68 °FPassing clouds.18 mph76%29.71 "Hg10 mi
6:56 PM65 °FPassing clouds.16 mph78%29.71 "Hg10 mi
7:56 PM63 °FPassing clouds.15 mph84%29.72 "Hg10 mi
8:56 PM63 °FPassing clouds.12 mph84%29.73 "Hg10 mi
9:56 PM62 °FPassing clouds.9 mph86%29.73 "Hg10 mi
10:56 PM62 °FPassing clouds.9 mph86%29.73 "Hg10 mi
11:56 PM61 °FPassing clouds.9 mph90%29.73 "Hg10 mi
Weather by CustomWeather, © 2014

See weather overviewHow to use our weather pages